Location: Malvern Link
(52.1333°N, 2.3000°W)
Time: 10:20:00
(UTC+00:00)

Cosmos 2082 Rocket - Pass Details

Date: 18 September 2020
Orbit: 834 x 853 km, 71.0° (Epoch: 25 October)

Event Time Altitude Azimuth Distance (km) Brightness Sun altitude
Rises 22:21:32 0° 327° (NNW) 3,394 6.5 -32.3°
Reaches altitude 10° 22:24:00 10° 324° (NW) 2,456 5.5 -32.5°
Enters shadow 22:28:07 45° 296° (WNW) 1,128 3.0 -32.8°
